SCP
0 0 0 0 0 0 0 0 0 0 0 0 0 0 0 0 0 0 0 0 0 0 0 0 0 0 0 0 0 0 0 0 0 0 0 0 0 0 0 0 0 0 0 0 0
0 0 0 0 0 0 0 0 0 0 0 0 0 0 0 0 0 0 0 0 0 0 0 0 0 0 0 0 0 0 0 0 0 0 -0 0 0 0 0 0 0 0 0 0 0
0 0 0 0 0 0 0 0 0 0 0 0 0 0 0 0 0 0 0 0 0 0 0 0 0 0 0 0 0 0 0 0 0 0 0 0 0 0 0 0 0 0 0 0 0
0 0 0 0 0 0 0 0 0 0 0 0 0 0 0 0 0 0 0 0 0 0 0 0 0 0 0 0 0 0 0 0 0 0 0 0 0 0 0 0 0 0 0 0 0
0 0 0 0 0 0 0 0 0 0 0 0 0 0 0 0 0 0 0 0 0 0 0 0 0 0 0 0 0 0 0 0 0 0 0 0 0 0 0 0 0 0 0 0 0
0 0 0 0 0 0 0 -0 -0 0 0 0 0 0 0 0 0 0 0 0 0 0 0 0 0 -0 0 0 0 0 0 0 0 0 0 0 0 0 0 0 0 0 0 0 0
0 0 0 0 0 0 0 -0 -0 0 0 0 0 0 0 0 0 0 0 0 0 0 0 0 0 0 -0 0 0 0 0 0 0 0 0 0 0 0 0 0 0 0 0 0 0
0 0 0 0 0 0 -0 -0 -0 -0 0 0 0 0 0 0 0 0 -0 0 0 0 -0 0 -0 0 0 0 0 0 0 0 0 0 0 0 0 0 0 0 0 0 0 0 0
0 0 0 0 0 0 0 -0 -0 -0 0 0 0 0 0 0 0 0 0 0 0 0 -0 -0 0 0 0 0 0 0 0 0 0 0 0 0 0 0 0 0 0 0 0 0 0
0 0 0 0 0 0 0 -0 0 0 0 0 0 0 0 0 0 0 0 0 0 0 -0 -0 0 0 0 0 0 0 0 0 0 0 0 0 0 0 0 0 0 0 0 0 0
0 0 0 0 0 0 0 0 0 0 0 0 0 0 0 0 0 0 0 -0 0 0 -0 -0 0 0 0 0 0 0 0 0 0 0 0 0 0 0 0 0 0 0 0 0 0
0 0 0 0 0 0 0 0 0 0 0 0 0 0 0 0 0 0 -0 -0 0 -0 -0 -0 0 0 0 0 0 -0 0 0 0 0 0 0 0 0 0 0 0 0 0 0 0
0 0 0 0 0 0 0 0 0 0 0 0 0 0 0 0 0 0 -0 0 -0 -0 -0 0 -0 0 0 0 0 0 0 0 0 0 0 0 0 0 0 0 0 0 0 0 0
0 0 0 0 0 0 0 0 0 0 0 0 0 0 0 0 0 0 0 -0 0 0 0 -0 -0 0 0 0 0 0 0 0 0 0 0 0 0 0 0 0 0 0 0 0 0
0 0 0 0 0 0 0 0 0 0 0 0 0 0 0 0 0 0 0 -0 -0 -0 0 0 -0 -0 0 0 0 0 0 0 0 0 0 0 0 0 0 0 0 0 0 0 0
0 0 0 0 0 0 0 0 0 0 0 0 0 0 0 0 -0 0 0 0 -0 0 -0 0 -0 0 0 -0 0 -0 0 0 0 0 0 0 0 0 0 0 0 0 0 0 0
0 0 0 0 0 0 0 0 0 0 0 0 0 0 0 0 0 -0 0 0 -0 0 -0 0 0 0 0 0 -0 -0 0 0 0 0 0 0 0 0 0 0 0 0 0 0 0
0 0 0 0 0 0 0 0 0 0 0 0 0 0 0 0 0 -0 0 0 -0 -0 -0 0 0 0 0 0 -0 -0 0 0 0 0 0 0 0 0 0 0 0 0 0 0 0
0 0 0 0 0 0 0 0 0 0 0 0 0 0 0 0 0 0 0 -0 0 -0 -0 0 0 0 0 0 0 0 0 0 0 0 0 0 0 0 0 0 0 0 0 -0 -0
0 0 0 0 0 0 0 0 0 0 0 0 0 0 0 0 0 0 0 0 -0 -0 -0 -0 -0 0 0 0 0 0 0 0 0 0 0 0 0 0 0 0 0 0 0 0 0
0 0 0 0 0 0 0 0 0 0 0 0 0 0 0 0 0 0 0 0 0 0 -0 -0 -0 -0 0 0 0 0 0 0 0 0 0 0 0 0 0 0 0 0 0 0 0
0 0 0 0 0 0 0 0 0 0 0 0 0 0 0 0 0 0 0 0 0 0 0 0 -0 -0 0 0 0 0 0 0 0 0 0 0 0 0 0 0 0 0 0 0 0
0 0 0 0 0 0 0 0 0 0 0 0 0 0 0 0 0 0 0 0 0 0 0 0 0 -0 0 0 0 0 0 0 0 0 0 0 0 0 0 0 0 0 0 0 0
0 0 0 0 0 0 0 0 0 0 0 0 0 0 0 0 0 0 0 0 0 0 0 0 0 0 0 0 0 0 0 0 0 0 0 0 0 0 0 0 0 0 0 0 0
0 0 0 0 0 0 0 0 0 0 0 0 0 0 0 0 0 0 0 0 0 0 0 0 0 0 0 0 0 0 0 0 0 0 0 0 0 0 0 0 0 0 0 0 0
0 0 0 0 0 0 0 0 0 0 0 0 0 0 0 0 0 0 0 0 0 0 0 0 0 0 0 0 0 0 -0 -0 0 0 0 0 0 0 0 0 0 0 0 0 0
0 0 0 0 0 0 0 0 0 0 0 0 0 0 0 0 0 0 0 0 0 0 0 0 0 0 0 0 0 0 0 0 0 0 0 0 0 0 0 0 0 0 0 0 0
Wind_Speed_500mb
18 20 23 25 24 25 29 32 35 37 38 38 40 41 44 48 44 33 32 22 21 30 35 34 39 38 35 32 31 19 8 21 16 16 9 16 11 8 13 32 20 16 20 22 55
20 21 22 24 24 26 29 33 36 37 38 38 39 38 39 39 30 19 19 15 29 37 40 39 37 33 22 24 20 19 15 18 10 16 3 31 22 29 15 32 15 33 30 47 61
20 21 21 22 25 28 31 34 35 37 37 38 36 35 29 31 19 13 21 18 29 33 28 30 25 20 11 26 27 14 25 20 4 11 17 29 11 27 30 5 37 47 49 58 70
20 20 21 24 26 30 33 35 38 38 37 37 33 32 27 22 7 19 28 31 32 21 21 26 20 10 7 21 26 8 23 13 8 14 12 3 14 11 27 12 39 36 42 56 75
20 22 23 26 28 31 33 37 40 39 35 35 29 30 26 16 10 19 24 31 35 21 21 26 28 20 12 21 13 8 9 24 5 27 21 19 7 11 23 11 45 51 47 53 71
22 24 25 28 29 31 34 38 40 37 33 28 27 23 16 8 19 33 16 27 28 26 20 26 17 27 6 14 25 15 9 14 10 22 26 8 4 11 14 28 53 59 56 50 53
22 24 25 27 29 32 35 37 36 33 23 23 20 16 10 14 37 17 14 24 29 33 28 15 14 17 21 9 25 10 9 3 10 4 13 5 10 10 23 40 52 57 51 44 45
21 23 22 25 29 31 34 35 33 20 19 13 14 10 9 20 27 6 13 19 30 30 24 12 15 9 11 9 13 3 11 10 14 18 13 11 10 17 19 43 48 45 42 39 40
19 20 22 26 30 33 32 31 16 11 13 13 12 12 6 26 33 10 21 18 31 37 14 9 15 7 12 10 7 8 5 10 19 14 16 2 10 12 32 40 39 41 46 38 36
17 19 23 28 31 34 33 18 6 11 8 8 16 9 9 25 26 17 14 20 24 32 14 9 11 4 8 7 7 8 5 7 11 5 3 22 12 12 7 24 25 33 49 44 41
18 20 23 26 28 30 30 7 4 6 20 5 10 11 17 23 13 21 19 26 17 6 9 11 9 10 21 22 23 16 16 7 6 11 11 14 13 13 9 6 8 7 48 45 41
17 20 22 23 21 22 23 17 17 6 9 6 7 8 13 19 14 22 15 14 16 7 8 4 15 8 18 23 26 32 25 13 13 7 9 3 18 9 5 7 13 12 18 35 36
15 18 17 18 14 17 21 21 15 11 3 5 9 8 11 15 12 22 21 23 10 2 11 9 7 6 12 18 23 28 16 6 2 8 4 6 4 11 7 10 11 16 19 14 19
15 15 14 11 5 8 10 14 11 6 6 11 5 9 14 8 9 21 17 10 12 6 7 2 13 6 9 8 14 16 6 9 12 9 4 4 1 11 12 12 18 29 31 22 21
15 12 10 7 3 4 9 8 5 4 6 8 6 13 16 4 7 11 14 9 11 13 5 3 14 9 4 2 9 10 10 9 9 6 2 9 11 13 11 15 13 21 31 26 15
15 12 9 6 4 2 7 5 2 10 6 3 6 10 5 14 4 8 7 8 9 10 5 1 2 9 6 10 5 19 8 9 8 5 4 16 5 4 5 1 3 11 23 22 18
18 14 11 8 3 3 4 2 8 8 6 10 3 3 6 7 7 11 7 7 8 7 5 3 4 4 8 7 4 4 4 5 7 5 3 10 5 2 8 11 8 10 17 13 14
16 15 12 9 5 2 4 8 8 6 8 4 4 8 3 2 6 10 6 8 12 8 6 3 9 5 2 0 8 8 6 7 7 5 6 8 10 8 5 23 26 26 21 15 11
17 15 14 10 7 6 6 6 13 11 4 1 7 7 9 0 3 10 10 9 10 17 7 8 3 3 6 5 3 7 3 4 10 3 5 4 11 13 6 11 24 36 33 22 14
16 11 14 12 11 13 6 6 5 1 1 3 5 2 4 5 3 8 6 7 9 9 14 9 1 3 4 6 6 2 8 7 5 6 1 3 6 9 2 10 9 18 31 29 21
16 6 8 15 17 8 6 10 5 6 2 2 4 2 6 5 4 4 2 4 2 11 11 9 7 3 4 6 2 5 4 8 7 5 5 5 1 7 10 8 12 16 26 27 26
16 2 11 24 6 1 6 10 4 11 4 1 2 2 1 7 5 4 6 3 6 3 4 4 6 4 2 4 3 3 2 5 7 4 1 3 4 10 10 13 23 25 31 31 26
13 7 16 24 6 5 1 2 2 7 8 7 6 6 2 2 5 1 9 4 6 3 5 5 1 1 12 10 8 7 7 7 9 5 5 8 6 8 11 19 21 26 32 35 33
14 5 8 14 6 12 9 5 2 5 2 2 2 5 2 2 1 4 5 3 4 4 4 8 4 3 8 4 3 3 5 5 7 6 2 5 5 3 14 15 22 19 24 31 34
20 8 12 7 9 7 9 11 9 7 3 3 3 7 7 5 5 3 3 5 3 2 2 4 6 4 7 12 5 2 2 3 5 7 7 7 3 11 14 14 11 19 29 32 33
20 13 13 10 19 14 10 12 16 9 12 7 6 13 8 9 6 4 3 7 5 6 4 6 1 5 8 12 14 8 11 9 7 7 8 9 12 13 17 16 19 22 26 25 28
36 21 13 18 10 7 9 11 16 19 10 9 15 5 10 7 14 14 15 8 4 4 6 5 7 6 7 9 9 12 9 9 7 8 8 10 11 7 8 13 8 19 17 19 24
Wind_Direction_500mb
328 324 329 332 339 342 342 342 341 342 341 339 336 338 341 326 310 312 291 281 265 286 287 288 263 271 240 241 219 234 191 219 220 233 250 225 171 140 146 126 120 121 146 182 162
325 323 327 330 335 336 337 338 338 340 339 338 337 341 349 352 350 7 1 262 272 273 285 285 281 266 277 257 214 205 201 213 197 242 247 246 191 163 143 124 93 112 125 157 162
327 328 329 327 330 333 334 334 334 336 336 335 336 337 338 343 338 11 1 332 290 286 286 266 270 246 261 271 212 204 220 219 195 306 278 214 209 178 143 188 168 162 152 163 167
328 327 325 325 328 331 331 332 330 332 333 331 333 332 339 355 334 347 343 340 344 305 258 246 255 176 193 263 203 192 221 177 49 333 312 298 199 196 166 193 193 202 188 170 172
322 321 320 323 326 329 330 329 328 330 330 327 329 328 341 343 296 298 314 320 329 323 255 245 241 202 244 295 285 198 215 206 199 5 305 308 152 208 188 156 188 184 179 176 179
321 320 321 322 326 331 331 328 329 331 329 331 326 321 343 289 327 317 298 316 316 321 272 230 229 199 296 266 308 311 204 222 240 320 294 321 296 211 172 144 163 176 178 179 185
313 318 323 324 329 333 331 329 329 332 336 344 338 328 329 306 324 317 327 318 301 306 286 259 269 175 178 280 292 14 130 91 221 245 301 232 280 200 136 152 158 172 175 181 189
309 316 320 322 327 331 331 329 332 345 347 357 17 18 300 345 341 280 318 306 292 295 278 302 207 227 202 192 330 15 158 169 185 46 295 100 269 258 212 172 161 171 178 183 189
308 315 319 323 329 333 335 331 335 24 26 28 18 356 329 344 360 333 313 305 307 286 238 17 356 171 206 94 93 344 193 192 148 159 341 220 257 313 206 173 169 175 182 186 188
306 316 322 325 332 339 343 340 52 35 36 35 17 315 5 340 347 350 340 311 291 290 5 8 7 30 96 105 135 98 49 97 93 155 236 294 269 325 120 179 177 188 179 181 193
297 310 321 327 334 346 355 5 59 53 50 55 347 296 321 359 354 356 345 332 299 303 10 7 30 75 104 113 104 93 88 64 116 105 209 278 287 266 276 195 152 147 182 180 187
297 311 320 331 342 353 11 65 47 2 331 65 358 322 338 7 339 7 328 353 317 302 111 24 51 358 54 102 86 87 73 22 336 13 201 236 286 286 200 248 200 129 150 182 177
292 307 316 329 350 359 29 44 35 35 303 322 45 349 359 3 348 349 352 335 258 325 72 54 118 106 94 99 86 70 66 37 189 230 263 128 277 283 253 228 193 117 92 105 164
286 300 308 327 343 13 12 12 14 90 58 330 8 356 348 338 360 344 3 2 331 63 59 60 163 149 97 86 124 69 306 347 19 63 193 132 334 11 341 46 32 37 63 72 96
273 284 298 322 330 359 343 349 354 85 43 312 353 339 334 18 273 347 20 24 328 316 67 292 174 172 8 38 273 131 237 30 22 78 341 27 96 332 342 35 28 33 44 46 58
263 262 265 284 305 318 340 334 109 42 263 338 19 337 26 352 31 330 346 357 318 315 51 54 174 155 192 156 290 159 167 98 43 70 83 313 43 309 293 99 68 34 33 22 11
252 247 246 250 230 302 328 149 32 121 319 308 315 296 307 1 15 2 27 23 35 2 351 23 17 13 91 86 326 297 125 57 32 48 153 200 75 301 18 27 31 14 26 5 357
235 240 241 236 243 209 156 53 97 238 230 252 230 302 60 356 13 353 331 42 33 347 303 127 344 352 286 143 195 212 166 135 142 160 182 168 170 90 81 48 59 62 59 60 41
228 233 240 220 210 182 154 67 199 204 248 44 314 72 325 309 101 74 44 7 27 3 351 359 53 352 33 332 99 218 121 152 110 29 77 222 112 66 60 72 46 47 48 50 39
220 234 242 209 190 162 90 218 179 318 266 0 150 181 164 288 105 87 32 322 334 19 356 326 230 0 293 330 342 157 165 75 5 95 87 303 61 125 169 72 51 46 42 31 30
201 218 225 190 167 164 164 200 196 193 131 140 155 355 55 48 94 70 122 231 13 334 337 334 342 338 70 15 280 33 1 58 105 97 135 127 295 190 148 113 71 55 44 32 25
187 176 187 174 113 24 156 173 172 153 173 270 170 106 273 17 85 126 118 97 162 132 76 18 340 341 335 280 318 278 70 151 121 217 97 100 193 197 147 84 45 31 22 15 14
179 170 172 185 156 179 19 343 215 166 179 176 200 236 135 71 89 50 133 148 26 227 132 129 94 294 342 350 357 16 30 97 97 65 197 137 236 171 67 25 34 28 17 12 13
170 154 181 203 212 137 149 206 151 192 132 169 171 158 165 167 109 155 120 111 88 68 111 124 55 128 178 245 232 183 59 7 96 105 207 223 300 290 335 346 352 8 23 22 19
189 218 179 180 228 171 149 150 140 182 150 168 243 228 173 137 133 153 121 113 79 93 351 90 120 39 345 345 327 281 226 168 198 205 142 212 239 298 312 302 328 23 17 9 12
173 172 173 187 165 137 168 206 166 160 144 242 173 206 211 141 161 135 127 42 85 333 89 35 83 63 349 358 359 308 280 267 234 215 223 237 283 240 269 312 4 16 16 33 25
198 175 171 164 149 118 205 182 189 147 205 204 185 115 178 148 104 96 82 97 72 86 43 72 112 64 283 342 2 338 247 216 218 203 183 218 224 294 310 339 336 354 62 31 7
Wind_Speed_850mb
18 20 23 25 24 25 29 32 35 37 38 38 40 41 44 48 44 33 32 22 21 30 35 34 39 38 35 32 31 19 8 21 16 16 9 16 11 8 13 32 20 16 20 22 55
20 21 22 24 24 26 29 33 36 37 38 38 39 38 39 39 30 19 19 15 29 37 40 39 37 33 22 24 20 19 15 18 10 16 3 31 22 29 15 32 15 33 30 47 61
20 21 21 22 25 28 31 34 35 37 37 38 36 35 29 31 19 13 21 18 29 33 28 30 25 20 11 26 27 14 25 20 4 11 17 29 11 27 30 5 37 47 49 58 70
20 20 21 24 26 30 33 35 38 38 37 37 33 32 27 22 7 19 28 31 32 21 21 26 20 10 7 21 26 8 23 13 8 14 12 3 14 11 27 12 39 36 42 56 75
20 22 23 26 28 31 33 37 40 39 35 35 29 30 26 16 10 19 24 31 35 21 21 26 28 20 12 21 13 8 9 24 5 27 21 19 7 11 23 11 45 51 47 53 71
22 24 25 28 29 31 34 38 40 37 33 28 27 23 16 8 19 33 16 27 28 26 20 26 17 27 6 14 25 15 9 14 10 22 26 8 4 11 14 28 53 59 56 50 53
22 24 25 27 29 32 35 37 36 33 23 23 20 16 10 14 37 17 14 24 29 33 28 15 14 17 21 9 25 10 9 3 10 4 13 5 10 10 23 40 52 57 51 44 45
21 23 22 25 29 31 34 35 33 20 19 13 14 10 9 20 27 6 13 19 30 30 24 12 15 9 11 9 13 3 11 10 14 18 13 11 10 17 19 43 48 45 42 39 40
19 20 22 26 30 33 32 31 16 11 13 13 12 12 6 26 33 10 21 18 31 37 14 9 15 7 12 10 7 8 5 10 19 14 16 2 10 12 32 40 39 41 46 38 36
17 19 23 28 31 34 33 18 6 11 8 8 16 9 9 25 26 17 14 20 24 32 14 9 11 4 8 7 7 8 5 7 11 5 3 22 12 12 7 24 25 33 49 44 41
18 20 23 26 28 30 30 7 4 6 20 5 10 11 17 23 13 21 19 26 17 6 9 11 9 10 21 22 23 16 16 7 6 11 11 14 13 13 9 6 8 7 48 45 41
17 20 22 23 21 22 23 17 17 6 9 6 7 8 13 19 14 22 15 14 16 7 8 4 15 8 18 23 26 32 25 13 13 7 9 3 18 9 5 7 13 12 18 35 36
15 18 17 18 14 17 21 21 15 11 3 5 9 8 11 15 12 22 21 23 10 2 11 9 7 6 12 18 23 28 16 6 2 8 4 6 4 11 7 10 11 16 19 14 19
15 15 14 11 5 8 10 14 11 6 6 11 5 9 14 8 9 21 17 10 12 6 7 2 13 6 9 8 14 16 6 9 12 9 4 4 1 11 12 12 18 29 31 22 21
15 12 10 7 3 4 9 8 5 4 6 8 6 13 16 4 7 11 14 9 11 13 5 3 14 9 4 2 9 10 10 9 9 6 2 9 11 13 11 15 13 21 31 26 15
15 12 9 6 4 2 7 5 2 10 6 3 6 10 5 14 4 8 7 8 9 10 5 1 2 9 6 10 5 19 8 9 8 5 4 16 5 4 5 1 3 11 23 22 18
18 14 11 8 3 3 4 2 8 8 6 10 3 3 6 7 7 11 7 7 8 7 5 3 4 4 8 7 4 4 4 5 7 5 3 10 5 2 8 11 8 10 17 13 14
16 15 12 9 5 2 4 8 8 6 8 4 4 8 3 2 6 10 6 8 12 8 6 3 9 5 2 0 8 8 6 7 7 5 6 8 10 8 5 23 26 26 21 15 11
17 15 14 10 7 6 6 6 13 11 4 1 7 7 9 0 3 10 10 9 10 17 7 8 3 3 6 5 3 7 3 4 10 3 5 4 11 13 6 11 24 36 33 22 14
16 11 14 12 11 13 6 6 5 1 1 3 5 2 4 5 3 8 6 7 9 9 14 9 1 3 4 6 6 2 8 7 5 6 1 3 6 9 2 10 9 18 31 29 21
16 6 8 15 17 8 6 10 5 6 2 2 4 2 6 5 4 4 2 4 2 11 11 9 7 3 4 6 2 5 4 8 7 5 5 5 1 7 10 8 12 16 26 27 26
16 2 11 24 6 1 6 10 4 11 4 1 2 2 1 7 5 4 6 3 6 3 4 4 6 4 2 4 3 3 2 5 7 4 1 3 4 10 10 13 23 25 31 31 26
13 7 16 24 6 5 1 2 2 7 8 7 6 6 2 2 5 1 9 4 6 3 5 5 1 1 12 10 8 7 7 7 9 5 5 8 6 8 11 19 21 26 32 35 33
14 5 8 14 6 12 9 5 2 5 2 2 2 5 2 2 1 4 5 3 4 4 4 8 4 3 8 4 3 3 5 5 7 6 2 5 5 3 14 15 22 19 24 31 34
20 8 12 7 9 7 9 11 9 7 3 3 3 7 7 5 5 3 3 5 3 2 2 4 6 4 7 12 5 2 2 3 5 7 7 7 3 11 14 14 11 19 29 32 33
20 13 13 10 19 14 10 12 16 9 12 7 6 13 8 9 6 4 3 7 5 6 4 6 1 5 8 12 14 8 11 9 7 7 8 9 12 13 17 16 19 22 26 25 28
36 21 13 18 10 7 9 11 16 19 10 9 15 5 10 7 14 14 15 8 4 4 6 5 7 6 7 9 9 12 9 9 7 8 8 10 11 7 8 13 8 19 17 19 24
Wind_Direction_850mb
328 324 329 332 339 342 342 342 341 342 341 339 336 338 341 326 310 312 291 281 265 286 287 288 263 271 240 241 219 234 191 219 220 233 250 225 171 140 146 126 120 121 146 182 162
325 323 327 330 335 336 337 338 338 340 339 338 337 341 349 352 350 7 1 262 272 273 285 285 281 266 277 257 214 205 201 213 197 242 247 246 191 163 143 124 93 112 125 157 162
327 328 329 327 330 333 334 334 334 336 336 335 336 337 338 343 338 11 1 332 290 286 286 266 270 246 261 271 212 204 220 219 195 306 278 214 209 178 143 188 168 162 152 163 167
328 327 325 325 328 331 331 332 330 332 333 331 333 332 339 355 334 347 343 340 344 305 258 246 255 176 193 263 203 192 221 177 49 333 312 298 199 196 166 193 193 202 188 170 172
322 321 320 323 326 329 330 329 328 330 330 327 329 328 341 343 296 298 314 320 329 323 255 245 241 202 244 295 285 198 215 206 199 5 305 308 152 208 188 156 188 184 179 176 179
321 320 321 322 326 331 331 328 329 331 329 331 326 321 343 289 327 317 298 316 316 321 272 230 229 199 296 266 308 311 204 222 240 320 294 321 296 211 172 144 163 176 178 179 185
313 318 323 324 329 333 331 329 329 332 336 344 338 328 329 306 324 317 327 318 301 306 286 259 269 175 178 280 292 14 130 91 221 245 301 232 280 200 136 152 158 172 175 181 189
309 316 320 322 327 331 331 329 332 345 347 357 17 18 300 345 341 280 318 306 292 295 278 302 207 227 202 192 330 15 158 169 185 46 295 100 269 258 212 172 161 171 178 183 189
308 315 319 323 329 333 335 331 335 24 26 28 18 356 329 344 360 333 313 305 307 286 238 17 356 171 206 94 93 344 193 192 148 159 341 220 257 313 206 173 169 175 182 186 188
306 316 322 325 332 339 343 340 52 35 36 35 17 315 5 340 347 350 340 311 291 290 5 8 7 30 96 105 135 98 49 97 93 155 236 294 269 325 120 179 177 188 179 181 193
297 310 321 327 334 346 355 5 59 53 50 55 347 296 321 359 354 356 345 332 299 303 10 7 30 75 104 113 104 93 88 64 116 105 209 278 287 266 276 195 152 147 182 180 187
297 311 320 331 342 353 11 65 47 2 331 65 358 322 338 7 339 7 328 353 317 302 111 24 51 358 54 102 86 87 73 22 336 13 201 236 286 286 200 248 200 129 150 182 177
292 307 316 329 350 359 29 44 35 35 303 322 45 349 359 3 348 349 352 335 258 325 72 54 118 106 94 99 86 70 66 37 189 230 263 128 277 283 253 228 193 117 92 105 164
286 300 308 327 343 13 12 12 14 90 58 330 8 356 348 338 360 344 3 2 331 63 59 60 163 149 97 86 124 69 306 347 19 63 193 132 334 11 341 46 32 37 63 72 96
273 284 298 322 330 359 343 349 354 85 43 312 353 339 334 18 273 347 20 24 328 316 67 292 174 172 8 38 273 131 237 30 22 78 341 27 96 332 342 35 28 33 44 46 58
263 262 265 284 305 318 340 334 109 42 263 338 19 337 26 352 31 330 346 357 318 315 51 54 174 155 192 156 290 159 167 98 43 70 83 313 43 309 293 99 68 34 33 22 11
252 247 246 250 230 302 328 149 32 121 319 308 315 296 307 1 15 2 27 23 35 2 351 23 17 13 91 86 326 297 125 57 32 48 153 200 75 301 18 27 31 14 26 5 357
235 240 241 236 243 209 156 53 97 238 230 252 230 302 60 356 13 353 331 42 33 347 303 127 344 352 286 143 195 212 166 135 142 160 182 168 170 90 81 48 59 62 59 60 41
228 233 240 220 210 182 154 67 199 204 248 44 314 72 325 309 101 74 44 7 27 3 351 359 53 352 33 332 99 218 121 152 110 29 77 222 112 66 60 72 46 47 48 50 39
220 234 242 209 190 162 90 218 179 318 266 0 150 181 164 288 105 87 32 322 334 19 356 326 230 0 293 330 342 157 165 75 5 95 87 303 61 125 169 72 51 46 42 31 30
201 218 225 190 167 164 164 200 196 193 131 140 155 355 55 48 94 70 122 231 13 334 337 334 342 338 70 15 280 33 1 58 105 97 135 127 295 190 148 113 71 55 44 32 25
187 176 187 174 113 24 156 173 172 153 173 270 170 106 273 17 85 126 118 97 162 132 76 18 340 341 335 280 318 278 70 151 121 217 97 100 193 197 147 84 45 31 22 15 14
179 170 172 185 156 179 19 343 215 166 179 176 200 236 135 71 89 50 133 148 26 227 132 129 94 294 342 350 357 16 30 97 97 65 197 137 236 171 67 25 34 28 17 12 13
170 154 181 203 212 137 149 206 151 192 132 169 171 158 165 167 109 155 120 111 88 68 111 124 55 128 178 245 232 183 59 7 96 105 207 223 300 290 335 346 352 8 23 22 19
189 218 179 180 228 171 149 150 140 182 150 168 243 228 173 137 133 153 121 113 79 93 351 90 120 39 345 345 327 281 226 168 198 205 142 212 239 298 312 302 328 23 17 9 12
173 172 173 187 165 137 168 206 166 160 144 242 173 206 211 141 161 135 127 42 85 333 89 35 83 63 349 358 359 308 280 267 234 215 223 237 283 240 269 312 4 16 16 33 25
198 175 171 164 149 118 205 182 189 147 205 204 185 115 178 148 104 96 82 97 72 86 43 72 112 64 283 342 2 338 247 216 218 203 183 218 224 294 310 339 336 354 62 31 7